Regional Weather Roundup
Issued by NWS San Diego, CA

Home | Current Version | Previous Version | Text Only | Print | Product List | Glossary On
Versions: 1 2 3 4 5 6 7 8 9 10 11 12 13 14 15 16 17 18 19 20 21 22 23 24 25 26 27 28
000
ASUS46 KSGX 271111
RWRSGX

SAN DIEGO HOURLY WEATHER ROUNDUP
NATIONAL WEATHER SERVICE SAN DIEGO CA
400 AM PDT TUE SEP 27 2016

NOTE: "FAIR" INDICATES FEW OR NO CLOUDS BELOW 12,000 FEET WITH NO
SIGNIFICANT WEATHER AND/OR OBSTRUCTIONS TO VISIBILITY.

CAZ042-043-060-061-PZZ750-775-271200-

GREATER SAN DIEGO AREA

CITY           SKY/WX    TMP DP  RH WIND       PRES   REMARKS
LINDBERGH FLD  CLOUDY    83  51  33 CALM      29.83F
NATIONAL CITY    N/A     82  58  44 CALM      29.82F
CHULA VISTA      N/A     80  58  45 E3        29.75S
IMPERIAL BEACH CLOUDY    74  56  53 E3        29.82F
BROWN FIELD    CLOUDY    82  49  31 CALM      29.84F
MIRAMAR MCAS   CLOUDY    80  49  33 E6        29.84F
MONTGOMERY FLD CLOUDY    83  47  28 NE6       29.84F

$$

NORTH SAN DIEGO COUNTY

CITY           SKY/WX    TMP DP  RH WIND       PRES   REMARKS
CAMP PENDLETON PTCLDY    68  42  38 CALM      29.84F
OCEANSIDE AP   PTCLDY    71  44  37 NE7       29.82F
OCEANSIDE HBR    N/A     76  44  31 E9        29.84F
VISTA            N/A     71  50  46 CALM      29.81
CARLSBAD       PTCLDY    79  49  34 N5        29.83F
DEL MAR          N/A     80  52  37 CALM      29.84F
LA JOLLA SCRIP   N/A     83  50  31 E2        29.81F
FALLBROOK        N/A     76  47  34 CALM      29.84F
ESCONDIDO        N/A     76  53  44 CALM      29.85F
SAN MARCOS       N/A     80  51  35 CALM      29.86F
POWAY            N/A     83  52  33 CALM      29.83F

$$

EAST SAN DIEGO COUNTY

CITY           SKY/WX    TMP DP  RH WIND       PRES   REMARKS
RAMONA           N/A    N/A N/A N/A MISG      29.90F
SANTEE LAKES     N/A     80  52  37 CALM      29.81F
LA MESA          N/A     80  51  35 CALM      29.75
JAMUL            N/A     80  53  38 CALM      29.82F
DESCANSO N       N/A     67  49  52 CALM      29.78F
MT. LAGUNA OBS   N/A     55  42  62 E6        29.71R
CAMPO            N/A     70  47  43 NE10      29.93F

$$

ORANGE COUNTY AND THE LOS ANGELES BASIN

CITY           SKY/WX    TMP DP  RH WIND       PRES   REMARKS
JOHN WAYNE AP  CLEAR     73  47  39 CALM      29.83F
LAGUNA BEACH     N/A     68  42  38 CALM      29.77F
LAKE FOREST FR   N/A     76  32  20 N2        29.71F
HUNTINGTON BCH   N/A     65  55  70 CALM      29.85F
LOS ALAMITOS   MOCLDY    70  44  38 NE6       29.83S
FULLERTON      CLEAR     73  38  27 E5        29.83F
LONG BEACH     CLEAR     70  51  51 CALM      29.83F
L.A. AP        PTCLDY    73  44  35 E5        29.84R
L.A. DOWNTOWN  CLEAR     78  40  25 NE3       29.84R

$$

THE INLAND EMPIRE

CITY           SKY/WX    TMP DP  RH WIND       PRES   REMARKS
CORONA         CLEAR     58  45  62 CALM      29.88F
CHINO          CLEAR     72  42  34 N5        29.89F
ONTARIO        CLEAR     74  40  29 CALM      29.89F
SAN BERNARDINO FAIR      74  36  25 SE5       29.91S
RIVERSIDE AP   CLEAR     73  41  31 NE6       29.89F
MORENO VALLEY    N/A     75  53  46 E8        28.04S
MARCH ARB      CLEAR     66  43  43 S2        29.92F
HORSETHIEF CYN   N/A     72  35  26 CALM      29.89F
PERRIS           N/A     74  48  39 SE1       29.94S
HEMET EAST       N/A     71  39  31 CALM      29.92F
FRENCH VALLEY  FAIR      70  39  32 N3        29.92F
TEMECULA         N/A     68  48  48 CALM      29.96S

$$

SAN BERNARDINO AND RIVERSIDE COUNTY MOUNTAINS

CITY           SKY/WX    TMP DP  RH WIND       PRES   REMARKS
BIG BEAR AP    CLEAR     37  25  60 CALM      30.24F
ANGELUS OAKS     N/A     60  34  37 CALM      29.79F
PINE COVE        N/A     61  34  36 CALM      29.87F

$$

SOUTHERN DESERT INCLUDING THE COACHELLA VALLEY

CITY           SKY/WX    TMP DP  RH WIND       PRES   REMARKS
PALM SPRINGS   PTCLDY    77  54  44 NW7       29.91F
PALM DESERT      N/A     77  55  46 CALM        N/A
THERMAL        MOCLDY    76  54  46 NE3       29.85F
BLYTHE         PTCLDY    77  50  38 NE10      29.90S
IMPERIAL AP    PTCLDY    78  50  37 CALM      29.85F
EL CENTRO NAS  PTCLDY    75  47  36 NE5       29.88S

$$

UPPER DESERT

CITY           SKY/WX    TMP DP  RH WIND       PRES   REMARKS
VICTORVILLE AP CLEAR     61  27  27 CALM      30.03S
HESPERIA         N/A     59  32  35 W2        30.03S
PALMDALE       CLEAR     59  31  34 S8        30.02S
LANCASTER      CLEAR     57  25  29 CALM      30.01S
EDWARDS AFB    CLEAR     59  24  26 SW5       29.99S
DAGGETT        CLEAR     62  28  27 W5        29.98S
29 PALMS N     PTCLDY    66  41  40 CALM      30.05F
NEEDLES        PTCLDY    80  49  33 SW8       29.94F

$$

REGIONAL REPORTS

CITY           SKY/WX    TMP DP  RH WIND       PRES   REMARKS
SANTA BARBARA  CLEAR     67  47  48 W3        29.81F
SANDBERG       CLEAR     72  28  19 NW15      30.14F
LAS VEGAS NV   PTCLDY    70  29  21 SW3       30.01S
PHOENIX AZ     MOCLDY    74  49  41 E3        29.96F
TIJUANA        MOCLDY    82  45  26 CALM      29.86
ENSENADA NW      N/A     83  32  16 E17       29.78F

$$

OFFSHORE ISLANDS

CITY           SKY/WX    TMP DP  RH WIND       PRES   REMARKS
CATALINA ARPT  PTCLDY    84  29  13 SW6       29.92F
SAN NICOLAS IS CLEAR     90  29  11 W8        29.84S

$$

MARINE AND OFFSHORE BUOY REPORTS

STATION/POSITION SKY/WX   TEMP    WIND        PRES    SWELL
                          AIR SEA DIR/SP/G            HT/PER/DIR
                          (F)     (DEG/KT/KT) (MB)    (FT/S/D)
TANNER BANKS               69 66  300/  6/  8 1009.7F   3/210/15
S CLEMENTE BASIN           78 67  340/  2/  4 1009.4F   3/200/16
SO. S. ROSA ISLA           66 64  260/  2/  4 1010.0F   5/190/15
W. S. BARBARA CH           71 62  320/ 10/ 10 1010.2F   3/230/15
M. S. BARBARA CH                  100/  2/  2 1010.5F
S. MONICA BASIN            71 70  350/  2/  2 1009.5F
S PEDRO CHANNEL               67                N/A     2/160/13
TORREY PINES OTR              71                N/A     2/200/14
POINT LOMA SOUTH              69                N/A     3/180/14

$$





USA.gov is the U.S. government's official web portal to all federal, state and local government web resources and services.